Showing default

UKUBE 1, 40074

Orbit data source: Space-Track

UKUBE 1, 40074 is a payload satellite owned by UKSA (UK) in SSO that was launched on Tue, 08 Jul 2014 UTC via a SOYUZ-2-1B launch vehicle from the Tyuratam Missile And Space Complex (TTMTR). Payload-class satellites include a variety of spacecraft equipped with specific instruments for various scientific and technological missions. These include communications satellites like Starlink; space stations such as the ISS; scientific satellites like the Hubble; Earth observation satellites from companies like Planet Labs, Umbra, and HawkEye 360; GPS; miniature CubeSats for education and research; and military/defense satellites.

Loading next visibility...
Identifier
40074, 2014-037F
Orbit
SSO
Last TLE update
16 hours ago
Origin
Manufacturer
ClydeSpace
Mission
Operational Commercial Technology
Bus & Motor
CUBESAT 3U, Unknown motor
Mass
4 kg wet, 4 kg dry
Launch date (UTC)
2014-07-08 (11 years ago)
Launch vehicle
SOYUZ-2-1B
Launch site
Tyuratam Missile And Space Complex (TTMTR)
Object type
Payload
Rocket body
Debris
Shape & HBR
Box + 1 Pan, 0.4 m
Radar Cross Section
0.038 m², Medium (>0.1 m² and < 1m²)

Expand to show TLE details & history

TLE from 16 hours ago
0 UKUBE 1
1 40074U 14037F   25183.49469127  .00005956  00000-0  41635-3 0  9998
2 40074  98.3949 147.8088 0000406 125.2420 234.8843 15.05742903595794
Epoch: 2025-07-02T11:52Z
TLE epoch observation values (Epoch: 2025-07-02T11:52:21.325Z)
Latitude
0.00001°
Longitude
48.94496°
Altitude
552.429 km
Speed
7.585 km/s
True Right ascension
09h 51m 14s
True Declination
0° 00' 00"
Sunlit
Object was in daylight at epoch
Visualization orbit readout
Latitude
-77.16972°
Longitude
89.77522°
Altitude
577.105 km
Speed
7.571 km/s
Apparent Right ascension
04h 12m 51s
Apparent Declination
-70° 29' 58"
Sunlit
Object is in daylight
Visualization observer readout
Local Sidereal Time
15:13:07
Azimuth
189.464° SSW
Elevation
-58.457°
Doppler factor
1
Orbital elements
Apogee altitude
546.537 km
Perigee altitude
545.975 km
Semi-major axis
6,924.393 km
Eccentricity
0.00004
Inclination
98.3949°
RAAN
147.8088°
Arg. of periapsis
125.242°
True anomaly
Unknown
Mean anomaly
234.8843°
Eccentric anomaly
Unknown
Mean motion
3.76678 °/min
Orbital period
95.57 mins
BSTAR
0.00041635
Loading maneuver chart data...
Loading SW <> Apogee altitude chart data...
Loading historical data...
Loading historical data...
Loading historical data...
Loading historical data...
Loading historical data...
Loading historical data...
Loading historical data...

UKUBE 1 Visibility forecast

Observer location: undefined°, undefined°

Span
Click to sort rows by Start time (UTC) header in descending order
Start Az.
Max El. time (UTC)
Max El. Az.
Max El.
End time (UTC)
End Az.
6 mins2025-07-03 10:45:56.573Z4.49° NNE2025-07-03 10:48:56.573Z287.42° WNW41.965°2025-07-03 10:51:56.573Z206.875° SW
6 mins2025-07-03 21:29:56.573Z156.285° SSE2025-07-03 21:32:56.573Z45.004° ENE42.955°2025-07-03 21:35:56.573Z352.468° N
|